{"data":{"norad_id":64456,"intl_designator":"2025-130U","name":"STARLINK-34430","alt_names":[],"object_type":"PAYLOAD","status":"ACTIVE","operator":null,"country":"US","launch_date":"2025-06-18","launch_site_code":"AFETR","launch_vehicle":null,"mission":null,"orbit_class":"UNKNOWN","rcs_meters":null,"size_class":null,"mass_kg":null,"dimensions":null,"purposes":["comms"],"wikipedia_slug":null,"has_3d_model":false,"image_url":null,"decayed_at":null,"tle_current":{"epoch":"2026-09-20T06:55:26.748192Z","epoch_age_seconds":149937,"freshness":"FRESH","line1":"1 64456U 25130U   26263.28850403  .00012450  00000+0  37898-3 0  9994","line2":"2 64456  53.1564 262.7555 0001024  80.1974 279.9144 15.34401941 70521","mean_motion":15.34401941,"eccentricity":0.0001024,"inclination_deg":53.1564,"raan_deg":262.7555,"arg_perigee_deg":80.1974,"mean_anomaly_deg":279.9144,"bstar":0.00037898,"rev_number":7052,"period_min":93.84763936505,"perigee_km":461.99696970229,"apogee_km":463.39797260199,"semimajor_km":6840.8344711521,"source":"CELESTRAK","updated_at":"2026-09-21T09:00:35.355824Z"}}}